Location: Alpine
(43.1636°N, 111.0180°W)
Time: 05:11:52
(UTC+00:00)

Tiros 1 despin weight - Pass Details

Date: 29 May 2022
Orbit: 591 x 639 km, 48.2° (Epoch: 30 June)

Event Time Altitude Azimuth Distance (km) Brightness Sun altitude
Rises 23:00:50 0° 205° (SSW) 2,892 ? 40.1°
Reaches altitude 10° 23:03:31 10° 191° (S) 1,980 ? 39.6°
Maximum altitude 23:07:08 24° 138° (SE) 1,296 ? 38.9°
Drops below altitude 10° 23:10:43 10° 85° (E) 1,964 ? 38.3°
Sets 23:13:21 0° 72° (ENE) 2,862 ? 37.8°
